Location: Frydek-Mistek
(49.6830°N, 18.3330°E)
Time: 04:21:19
(UTC+02:00)

ISS - Pass Details

Date: 23 May 2021
Orbit: 417 x 422 km, 51.6° (Epoch: 13 June)

Event Time Altitude Azimuth Distance (km) Brightness Sun altitude
Rises 00:34:48 0° 288° (WNW) 2,370 0.3 -19.7°
Reaches altitude 10° 00:37:01 10° 278° (W) 1,504 -0.8 -19.7°
Enters shadow 00:38:13 19° 266° (W) 1,087 -1.7 -19.7°
